Location: Katowice
(50.2611°N, 19.0242°E)
Time: 07:23:24
(UTC+02:00)

Explorer 7 - Pass Details

Date: 29 August 2019
Orbit: 485 x 680 km, 50.3° (Epoch: 19 September)

Event Time Altitude Azimuth Distance (km) Brightness Sun altitude
Rises 13:44:02 0° 285° (WNW) 2,939 10.6 47.3°
Reaches altitude 10° 13:46:44 10° 273° (W) 1,994 10.0 47.1°
Maximum altitude 13:50:28 25° 218° (SW) 1,215 10.0 46.9°
Drops below altitude 10° 13:54:01 10° 162° (SSE) 1,882 10.2 46.7°
Sets 13:56:29 0° 149° (SSE) 2,738 10.7 46.5°
